TimeCDT,TemperatureF,Dew PointF,Humidity,Sea Level PressureIn,VisibilityMPH,Wind Direction,Wind SpeedMPH,Gust SpeedMPH,PrecipitationIn,Events,Conditions,WindDirDegrees,DateUTC
12:15 AM,59.0,50.0,72,30.06,10.0,SSE,16.1,24.2,N/A,,Mostly Cloudy,160,2013-05-25 05:15:00
12:35 AM,57.2,50.0,77,30.04,10.0,SSE,16.1,23.0,N/A,,Partly Cloudy,160,2013-05-25 05:35:00
12:55 AM,57.2,50.0,77,30.04,10.0,SSE,15.0,21.9,N/A,,Scattered Clouds,160,2013-05-25 05:55:00
1:15 AM,57.2,50.0,77,30.04,10.0,SSE,16.1,21.9,N/A,,Overcast,160,2013-05-25 06:15:00
1:35 AM,57.2,50.0,77,30.04,10.0,SSE,16.1,-,N/A,,Overcast,160,2013-05-25 06:35:00
1:55 AM,57.2,50.0,77,30.03,10.0,SSE,16.1,21.9,N/A,,Overcast,160,2013-05-25 06:55:00
2:15 AM,57.2,50.0,77,30.03,10.0,SSE,16.1,21.9,N/A,,Overcast,160,2013-05-25 07:15:00
2:35 AM,57.2,50.0,77,30.03,10.0,SSE,15.0,21.9,N/A,,Overcast,160,2013-05-25 07:35:00
2:55 AM,57.2,50.0,77,30.03,10.0,SSE,12.7,-,N/A,,Scattered Clouds,150,2013-05-25 07:55:00
3:15 AM,57.2,51.8,82,30.04,10.0,SSE,12.7,-,N/A,,Mostly Cloudy,150,2013-05-25 08:15:00
3:35 AM,57.2,50.0,77,30.03,10.0,SE,12.7,18.4,N/A,,Overcast,140,2013-05-25 08:35:00
3:55 AM,57.2,50.0,77,30.03,10.0,ESE,8.1,-,N/A,,Mostly Cloudy,120,2013-05-25 08:55:00
4:15 AM,55.4,51.8,88,30.04,10.0,SE,8.1,-,N/A,,Mostly Cloudy,140,2013-05-25 09:15:00
4:35 AM,55.4,53.6,94,30.04,10.0,SE,5.8,-,N/A,,Scattered Clouds,140,2013-05-25 09:35:00
4:55 AM,55.4,53.6,94,30.04,10.0,SE,6.9,-,N/A,,Overcast,140,2013-05-25 09:55:00
5:15 AM,53.6,53.6,100,30.03,10.0,ESE,6.9,-,N/A,,Overcast,110,2013-05-25 10:15:00
5:35 AM,53.6,53.6,100,30.03,10.0,ESE,6.9,-,N/A,,Overcast,110,2013-05-25 10:35:00
5:55 AM,53.6,53.6,100,30.03,10.0,ESE,9.2,-,N/A,,Overcast,120,2013-05-25 10:55:00
6:15 AM,53.6,53.6,100,30.03,10.0,ESE,10.4,-,N/A,,Partly Cloudy,110,2013-05-25 11:15:00
6:35 AM,53.6,53.6,100,30.04,10.0,ESE,12.7,-,N/A,,Clear,120,2013-05-25 11:35:00
6:55 AM,53.6,53.6,100,30.04,10.0,SE,12.7,-,N/A,,Clear,130,2013-05-25 11:55:00
7:15 AM,53.6,53.6,100,30.04,10.0,SE,13.8,-,N/A,,Clear,130,2013-05-25 12:15:00
7:35 AM,55.4,55.4,100,30.04,10.0,SE,12.7,20.7,N/A,,Clear,130,2013-05-25 12:35:00
7:55 AM,55.4,55.4,100,30.05,10.0,SE,15.0,21.9,N/A,,Clear,130,2013-05-25 12:55:00
8:15 AM,55.4,55.4,100,30.04,10.0,SE,16.1,21.9,N/A,,Clear,140,2013-05-25 13:15:00
8:35 AM,57.2,57.2,100,30.04,10.0,SE,16.1,21.9,N/A,,Partly Cloudy,140,2013-05-25 13:35:00
8:55 AM,57.2,57.2,100,30.05,10.0,SE,13.8,-,N/A,,Scattered Clouds,140,2013-05-25 13:55:00
9:15 AM,57.2,57.2,100,30.06,10.0,SE,17.3,21.9,N/A,,Overcast,140,2013-05-25 14:15:00
9:35 AM,57.2,57.2,100,30.06,10.0,SE,17.3,25.3,N/A,,Mostly Cloudy,140,2013-05-25 14:35:00
9:55 AM,57.2,57.2,100,30.06,10.0,SE,23.0,-,N/A,,Overcast,130,2013-05-25 14:55:00
10:15 AM,59.0,59.0,100,30.06,10.0,ESE,20.7,25.3,N/A,,Overcast,120,2013-05-25 15:15:00
10:35 AM,59.0,59.0,100,30.07,10.0,SE,20.7,-,N/A,,Mostly Cloudy,130,2013-05-25 15:35:00
10:55 AM,59.0,59.0,100,30.07,10.0,SE,16.1,23.0,N/A,,Mostly Cloudy,140,2013-05-25 15:55:00
11:15 AM,62.6,59.0,88,30.08,10.0,SE,16.1,21.9,N/A,,Mostly Cloudy,140,2013-05-25 16:15:00
11:35 AM,62.6,59.0,88,30.08,10.0,SSE,18.4,-,N/A,,Partly Cloudy,150,2013-05-25 16:35:00
11:55 AM,62.6,59.0,88,30.08,10.0,SE,17.3,-,N/A,,Clear,140,2013-05-25 16:55:00
12:15 PM,64.4,59.0,83,30.08,10.0,ESE,15.0,-,N/A,,Clear,120,2013-05-25 17:15:00
12:35 PM,64.4,59.0,83,30.07,10.0,ESE,17.3,-,N/A,,Clear,120,2013-05-25 17:35:00
12:55 PM,62.6,59.0,88,30.08,10.0,ESE,17.3,21.9,N/A,,Scattered Clouds,110,2013-05-25 17:55:00
1:15 PM,64.4,59.0,83,30.07,10.0,ESE,13.8,20.7,N/A,,Partly Cloudy,120,2013-05-25 18:15:00
1:35 PM,64.4,59.0,83,30.06,10.0,ESE,16.1,-,N/A,,Clear,110,2013-05-25 18:35:00
1:55 PM,64.4,59.0,83,30.06,10.0,East,17.3,24.2,N/A,,Clear,90,2013-05-25 18:55:00
2:15 PM,64.4,59.0,83,30.05,10.0,East,18.4,25.3,N/A,,Clear,90,2013-05-25 19:15:00
2:35 PM,66.2,59.0,78,30.04,10.0,East,19.6,27.6,N/A,,Clear,100,2013-05-25 19:35:00
2:55 PM,66.2,59.0,78,30.03,10.0,East,23.0,26.5,N/A,,Clear,90,2013-05-25 19:55:00
3:15 PM,66.2,59.0,78,30.03,10.0,East,21.9,29.9,N/A,,Clear,90,2013-05-25 20:15:00
3:35 PM,68.0,59.0,73,30.04,10.0,East,21.9,-,N/A,,Clear,100,2013-05-25 20:35:00
3:55 PM,68.0,59.0,73,30.03,10.0,ESE,19.6,26.5,N/A,,Clear,110,2013-05-25 20:55:00
4:15 PM,68.0,59.0,73,30.03,10.0,ESE,18.4,26.5,N/A,,Clear,110,2013-05-25 21:15:00
4:35 PM,68.0,59.0,73,30.03,10.0,East,20.7,25.3,N/A,,Clear,100,2013-05-25 21:35:00
4:55 PM,71.6,59.0,64,30.02,10.0,ESE,19.6,25.3,N/A,,Clear,120,2013-05-25 21:55:00
5:15 PM,73.4,59.0,61,30.01,10.0,East,23.0,29.9,N/A,,Clear,100,2013-05-25 22:15:00
5:35 PM,73.4,57.2,57,30.01,10.0,SE,21.9,29.9,N/A,,Scattered Clouds,130,2013-05-25 22:35:00
5:55 PM,71.6,57.2,60,30.01,10.0,SE,25.3,29.9,N/A,,Partly Cloudy,130,2013-05-25 22:55:00
6:15 PM,69.8,57.2,64,30.02,10.0,SE,23.0,35.7,N/A,,Clear,140,2013-05-25 23:15:00
6:35 PM,66.2,57.2,73,30.02,10.0,ESE,24.2,34.5,N/A,,Clear,120,2013-05-25 23:35:00
6:55 PM,64.4,57.2,77,30.03,10.0,ESE,24.2,31.1,N/A,,Clear,110,2013-05-25 23:55:00
7:15 PM,62.6,57.2,82,30.04,10.0,ESE,23.0,28.8,N/A,,Clear,120,2013-05-26 00:15:00
7:35 PM,59.0,57.2,94,30.05,10.0,ESE,23.0,31.1,N/A,,Scattered Clouds,120,2013-05-26 00:35:00
7:55 PM,57.2,57.2,100,30.05,10.0,ESE,18.4,29.9,N/A,,Overcast,120,2013-05-26 00:55:00
8:15 PM,55.4,55.4,100,30.05,10.0,ESE,21.9,26.5,N/A,,Overcast,120,2013-05-26 01:15:00
8:35 PM,55.4,55.4,100,30.04,10.0,ESE,21.9,31.1,N/A,,Overcast,110,2013-05-26 01:35:00
8:55 PM,55.4,55.4,100,30.05,10.0,ESE,23.0,27.6,N/A,,Overcast,110,2013-05-26 01:55:00
9:15 PM,53.6,53.6,100,30.07,10.0,SE,19.6,29.9,N/A,,Overcast,130,2013-05-26 02:15:00
9:35 PM,53.6,53.6,100,30.07,10.0,SE,24.2,31.1,N/A,,Overcast,130,2013-05-26 02:35:00
9:55 PM,53.6,53.6,100,30.07,10.0,ESE,21.9,33.4,N/A,,Overcast,120,2013-05-26 02:55:00
10:15 PM,53.6,53.6,100,30.06,10.0,ESE,18.4,31.1,N/A,,Overcast,120,2013-05-26 03:15:00
10:35 PM,51.8,51.8,100,30.05,10.0,ESE,23.0,32.2,N/A,,Overcast,120,2013-05-26 03:35:00
10:55 PM,50.0,50.0,100,30.06,10.0,ESE,25.3,31.1,N/A,Thunderstorm,Overcast,120,2013-05-26 03:55:00
11:15 PM,50.0,50.0,100,30.03,9.0,ESE,25.3,32.2,N/A,Thunderstorm,Overcast,120,2013-05-26 04:15:00
11:35 PM,50.0,50.0,100,30.06,5.0,SE,23.0,28.8,N/A,Thunderstorm,Overcast,130,2013-05-26 04:35:00
11:55 PM,50.0,50.0,100,30.05,10.0,SE,21.9,33.4,N/A,,Overcast,130,2013-05-26 04:55:00